Weather History for Perry, FL

Change the Weather History Date:

Monday, March 24, 2014

  Actual Average (KCTY) Record (KCTY)
Temperature  
Mean Temperature 60 °F 64 °F  
Max Temperature 66 °F 77 °F 87 °F (2007)
Min Temperature 53 °F 50 °F 44 °F (2001)
Degree Days  
Heating Degree Days 6 3  
Month to date heating degree days 115  
Since 1 July heating degree days 1235  
Cooling Degree Days 0 2  
Month to date cooling degree days 30  
Year to date cooling degree days 57  
Growing Degree Days 10 (Base 50)    
Moisture  
Dew Point 49 °F    
Average Humidity 67    
Maximum Humidity 88    
Minimum Humidity 56    
Precipitation  
Precipitation 0.00 in 0.14 in 2.49 in (2012)
Month to date precipitation 3.27  
Year to date precipitation 10.58  
Sea Level Pressure  
Sea Level Pressure 30.05 in    
Wind  
Wind Speed 7 mph (NE)    
Max Wind Speed 15 mph    
Max Gust Speed 18 mph    
Visibility 10 miles    
Events      
T = Trace of Precipitation, MM = Missing Value Source: NWS Daily Summary

Daily Weather History Graph

Daily Weather History Graph

Search for Another Location

Airport:

Trip Planner

Search our weather history database for the weather conditions in past years. The results will help you decide how hot, cold, wet, or windy it might be!

Date:

Astronomy

Mar. 24, 2014 Rise Set
Actual Time 7:33 AM EDT 7:48 PM EDT
Civil Twilight 7:09 AM EDT 8:12 PM EDT
Nautical Twilight 6:41 AM EDT 8:40 PM EDT
Astronomical Twilight 6:13 AM EDT 9:08 PM EDT
Moon 2:39 AM EDT (3/24) 1:35 PM EDT (3/24)
Length of Visible Light 13h 02m
Length of Day
12h 14m
Last Quarter, 43% of the Moon is Illuminated
Mar 24
Last Quarter
Mar 30
New
Apr 7
First Quarter
Apr 15
Full
Apr 22
Last Quarter

Hourly Weather History & Observations

Time (EDT) Temp. Dew Point Humidity Pressure Visibility Wind Dir Wind Speed Gust Speed Precip Events Conditions
12:15 AM 62.6 °F 59.0 °F 88% 30.06 in 10.0 mi North 8.1 mph - N/A   Clear
12:35 AM 62.6 °F 55.4 °F 77% 30.06 in 10.0 mi North 10.4 mph - N/A   Clear
12:55 AM 62.6 °F 55.4 °F 77% 30.08 in 10.0 mi North 8.1 mph - N/A   Clear
1:15 AM 62.6 °F 53.6 °F 72% 30.07 in 10.0 mi North 9.2 mph - N/A   Clear
1:35 AM 62.6 °F 53.6 °F 72% 30.07 in 10.0 mi North 6.9 mph - N/A   Clear
1:55 AM 62.6 °F 53.6 °F 72% 30.08 in 10.0 mi North 4.6 mph - N/A   Clear
2:15 AM 60.8 °F 53.6 °F 77% 30.07 in 10.0 mi North 6.9 mph - N/A   Clear
2:35 AM 60.8 °F 53.6 °F 77% 30.06 in 10.0 mi North 4.6 mph - N/A   Clear
2:55 AM 60.8 °F 53.6 °F 77% 30.06 in 10.0 mi North 5.8 mph - N/A   Clear
3:15 AM 60.8 °F 51.8 °F 72% 30.07 in 10.0 mi North 6.9 mph - N/A   Scattered Clouds
3:35 AM 60.8 °F 51.8 °F 72% 30.07 in 10.0 mi North 10.4 mph - N/A   Scattered Clouds
3:55 AM 60.8 °F 51.8 °F 72% 30.07 in 10.0 mi North 8.1 mph - N/A   Scattered Clouds
4:15 AM 59.0 °F 50.0 °F 72% 30.06 in 10.0 mi NNE 10.4 mph 16.1 mph N/A   Clear
4:35 AM 59.0 °F 46.4 °F 63% 30.05 in 10.0 mi NNE 5.8 mph - N/A   Clear
4:55 AM 59.0 °F 44.6 °F 59% 30.06 in 10.0 mi NNE 4.6 mph - N/A   Clear
5:15 AM 57.2 °F 44.6 °F 63% 30.06 in 10.0 mi NNE 3.5 mph - N/A   Clear
5:35 AM 57.2 °F 44.6 °F 63% 30.07 in 10.0 mi North 3.5 mph - N/A   Clear
5:55 AM 55.4 °F 44.6 °F 67% 30.06 in 10.0 mi Calm Calm - N/A   Clear
6:15 AM 55.4 °F 44.6 °F 67% 30.07 in 10.0 mi North 3.5 mph - N/A   Clear
6:35 AM 55.4 °F 44.6 °F 67% 30.09 in 10.0 mi North 3.5 mph - N/A   Clear
6:55 AM 55.4 °F 44.6 °F 67% 30.08 in 10.0 mi NNE 3.5 mph - N/A   Clear
7:15 AM 53.6 °F 44.6 °F 72% 30.07 in 10.0 mi NNE 4.6 mph - N/A   Clear
7:35 AM 53.6 °F 44.6 °F 72% 30.07 in 10.0 mi Calm Calm - N/A   Clear
7:55 AM 53.6 °F 44.6 °F 72% 30.08 in 10.0 mi North 3.5 mph - N/A   Clear
8:15 AM 53.6 °F 44.6 °F 72% 30.08 in 10.0 mi NNE 4.6 mph - N/A   Clear
8:35 AM 55.4 °F 44.6 °F 67% 30.09 in 10.0 mi NNE 4.6 mph - N/A   Scattered Clouds
8:55 AM 55.4 °F 44.6 °F 67% 30.10 in 10.0 mi NNE 4.6 mph - N/A   Scattered Clouds
9:15 AM 57.2 °F 46.4 °F 67% 30.10 in 10.0 mi NE 5.8 mph - N/A   Scattered Clouds
9:35 AM 59.0 °F 46.4 °F 63% 30.10 in 10.0 mi East 6.9 mph - N/A   Scattered Clouds
9:55 AM 59.0 °F 46.4 °F 63% 30.10 in 10.0 mi ENE 9.2 mph 18.4 mph N/A   Clear
10:15 AM 60.8 °F 46.4 °F 59% 30.13 in 10.0 mi East 5.8 mph - N/A   Clear
10:35 AM 60.8 °F 46.4 °F 59% 30.11 in 10.0 mi ENE 6.9 mph - N/A   Clear
10:55 AM 60.8 °F 46.4 °F 59% 30.10 in 10.0 mi East 9.2 mph - N/A   Clear
11:15 AM 62.6 °F 48.2 °F 59% 30.10 in 10.0 mi East 10.4 mph 16.1 mph N/A   Clear
11:35 AM 62.6 °F 48.2 °F 59% 30.10 in 10.0 mi ESE 15.0 mph - N/A   Clear
11:55 AM 62.6 °F 48.2 °F 59% 30.11 in 10.0 mi ENE 6.9 mph - N/A   Clear
12:15 PM 62.6 °F 48.2 °F 59% 30.10 in 10.0 mi ENE 6.9 mph - N/A   Clear
12:35 PM 64.4 °F 50.0 °F 59% 30.11 in 10.0 mi ENE 5.8 mph - N/A   Scattered Clouds
12:55 PM 64.4 °F 48.2 °F 56% 30.10 in 10.0 mi East 8.1 mph - N/A   Scattered Clouds
1:15 PM 64.4 °F 48.2 °F 56% 30.09 in 10.0 mi East 6.9 mph - N/A   Scattered Clouds
1:35 PM 64.4 °F 48.2 °F 56% 30.08 in 10.0 mi NNE 5.8 mph - N/A   Scattered Clouds
1:55 PM 64.4 °F 50.0 °F 59% 30.08 in 10.0 mi NNE 9.2 mph - N/A   Scattered Clouds
2:15 PM 64.4 °F 50.0 °F 59% 30.07 in 10.0 mi ENE 6.9 mph - N/A   Scattered Clouds
2:35 PM 66.2 °F 50.0 °F 56% 30.05 in 10.0 mi ENE 6.9 mph - N/A   Scattered Clouds
2:55 PM 66.2 °F 50.0 °F 56% 30.03 in 10.0 mi East 5.8 mph 10.4 mph N/A   Scattered Clouds
3:15 PM 66.2 °F 50.0 °F 56% 30.03 in 10.0 mi ESE 10.4 mph - N/A   Scattered Clouds
3:35 PM 64.4 °F 50.0 °F 59% 30.03 in 10.0 mi East 6.9 mph - N/A   Scattered Clouds
3:55 PM 64.4 °F 50.0 °F 59% 30.04 in 10.0 mi ESE 6.9 mph - N/A   Mostly Cloudy
4:15 PM 64.4 °F 50.0 °F 59% 30.02 in 10.0 mi ENE 4.6 mph - N/A   Overcast
4:35 PM 66.2 °F 50.0 °F 56% 30.01 in 10.0 mi East 5.8 mph - N/A   Overcast
4:55 PM 64.4 °F 50.0 °F 59% 30.00 in 10.0 mi ENE 4.6 mph - N/A   Overcast
5:15 PM 64.4 °F 50.0 °F 59% 30.00 in 10.0 mi NE 8.1 mph - N/A   Overcast
5:35 PM 62.6 °F 50.0 °F 63% 30.00 in 10.0 mi NE 6.9 mph - N/A   Overcast
5:55 PM 62.6 °F 50.0 °F 63% 30.00 in 10.0 mi ENE 4.6 mph - N/A   Overcast
6:15 PM 62.6 °F 50.0 °F 63% 30.00 in 10.0 mi ENE 5.8 mph - N/A   Overcast
6:35 PM 60.8 °F 50.0 °F 68% 29.98 in 10.0 mi ENE 8.1 mph - N/A   Overcast
6:55 PM 60.8 °F 50.0 °F 68% 29.99 in 10.0 mi ENE 8.1 mph - N/A   Mostly Cloudy
7:15 PM 60.8 °F 50.0 °F 68% 30.00 in 10.0 mi ENE 5.8 mph - N/A   Overcast
7:35 PM 59.0 °F 50.0 °F 72% 30.00 in 10.0 mi ENE 6.9 mph - N/A   Mostly Cloudy
7:55 PM 59.0 °F 50.0 °F 72% 30.00 in 10.0 mi ENE 5.8 mph - N/A   Overcast
8:15 PM 59.0 °F 50.0 °F 72% 30.01 in 10.0 mi ENE 4.6 mph - N/A   Overcast
8:35 PM 57.2 °F 50.0 °F 77% 30.00 in 10.0 mi ENE 3.5 mph - N/A   Mostly Cloudy
8:55 PM 57.2 °F 50.0 °F 77% 30.00 in 10.0 mi ENE 5.8 mph - N/A   Scattered Clouds
9:15 PM 57.2 °F 50.0 °F 77% 30.00 in 10.0 mi East 6.9 mph - N/A   Scattered Clouds
9:35 PM 55.4 °F 50.0 °F 82% 30.00 in 10.0 mi ENE 5.8 mph - N/A   Mostly Cloudy
9:55 PM 55.4 °F 48.2 °F 77% 30.00 in 10.0 mi ENE 5.8 mph - N/A   Overcast
10:15 PM 55.4 °F 48.2 °F 77% 30.00 in 10.0 mi East 4.6 mph - N/A   Mostly Cloudy
10:35 PM 55.4 °F 48.2 °F 77% 30.01 in 10.0 mi East 4.6 mph - N/A   Mostly Cloudy
10:55 PM 55.4 °F 48.2 °F 77% 30.00 in 10.0 mi ENE 4.6 mph - N/A   Overcast
11:15 PM 55.4 °F 48.2 °F 77% 30.00 in 10.0 mi ENE 4.6 mph - N/A   Overcast
11:35 PM 55.4 °F 48.2 °F 77% 29.99 in 10.0 mi East 4.6 mph - N/A   Overcast
11:55 PM 53.6 °F 46.4 °F 77% 29.99 in 10.0 mi ENE 4.6 mph - N/A   Overcast